EN

Hourly Weather Labateca

Today, 28 July, Wednesday

Time Temperature Precipitation Wind Pressure Humidity
00:00 +16°C° 0 mm 1 mps 633 mmHg 95%
01:00 +16°C° 0 mm 1 mps 632 mmHg 95%
02:00 +15°C° 0 mm 1 mps 632 mmHg 94%
03:00 +15°C° 0 mm 1 mps 632 mmHg 94%
04:00 +15°C° 0 mm 1 mps 632 mmHg 93%
05:00 +16°C° 0 mm 1 mps 632 mmHg 91%
06:00 +18°C° 0 mm 1 mps 633 mmHg 88%
07:00 +19°C° 0 mm 1 mps 633 mmHg 86%
08:00 +21°C° 0.1 mm 1 mps 634 mmHg 81%
09:00 +22°C° 0.1 mm 1 mps 634 mmHg 75%
10:00 +24°C° 0.1 mm 2 mps 634 mmHg 70%
11:00 +24°C° 0.5 mm 2 mps 634 mmHg 73%
12:00 +24°C° 0.5 mm 2 mps 633 mmHg 76%
13:00 +23°C° 0.5 mm 2 mps 633 mmHg 79%
14:00 +23°C° 0.4 mm 2 mps 632 mmHg 80%
15:00 +23°C° 0.4 mm 2 mps 632 mmHg 82%
16:00 +22°C° 0.4 mm 1 mps 631 mmHg 83%
17:00 +21°C° 0.2 mm 1 mps 631 mmHg 88%
18:00 +20°C° 0.2 mm 1 mps 632 mmHg 94%
19:00 +19°C° 0.2 mm 1 mps 632 mmHg 99%
20:00 +19°C° 0.6 mm 1 mps 632 mmHg 98%
21:00 +19°C° 0.6 mm 1 mps 633 mmHg 98%
22:00 +19°C° 0.6 mm 1 mps 633 mmHg 98%
23:00 +18°C° 0.5 mm 1 mps 633 mmHg 97%

Tomorrow, 29 July, Thursday

Time Temperature Precipitation Wind Pressure Humidity
00:00 +18°C° 0.5 mm 1 mps 632 mmHg 97%
01:00 +18°C° 0.5 mm 1 mps 632 mmHg 96%
02:00 +18°C° 0 mm 1 mps 632 mmHg 97%
03:00 +18°C° 0 mm 1 mps 631 mmHg 97%
04:00 +18°C° 0 mm 1 mps 631 mmHg 97%
05:00 +18°C° 0 mm 1 mps 632 mmHg 96%
06:00 +18°C° 0 mm 1 mps 632 mmHg 96%
07:00 +19°C° 0 mm 1 mps 633 mmHg 95%
08:00 +20°C° 0.1 mm 1 mps 633 mmHg 91%
09:00 +21°C° 0.1 mm 1 mps 633 mmHg 86%
10:00 +21°C° 0.1 mm 2 mps 634 mmHg 82%
11:00 +21°C° 0.3 mm 2 mps 633 mmHg 81%
12:00 +23°C° 0.3 mm 2 mps 633 mmHg 80%
13:00 +23°C° 0.3 mm 2 mps 633 mmHg 80%
14:00 +21°C° 0.6 mm 2 mps 632 mmHg 84%
15:00 +21°C° 0.6 mm 2 mps 632 mmHg 87%
16:00 +21°C° 0.6 mm 1 mps 632 mmHg 91%
17:00 +20°C° 0.7 mm 1 mps 632 mmHg 94%
18:00 +20°C° 0.7 mm 1 mps 632 mmHg 96%
19:00 +19°C° 0.7 mm 1 mps 632 mmHg 99%
20:00 +19°C° 0.7 mm 1 mps 633 mmHg 98%
21:00 +19°C° 0.7 mm 1 mps 633 mmHg 98%
22:00 +19°C° 0.7 mm 1 mps 633 mmHg 98%
23:00 +18°C° 0 mm 1 mps 633 mmHg 97%

Day after tomorrow, 30 July, Friday

Time Temperature Precipitation Wind Pressure Humidity
00:00 +18°C° 0 mm 1 mps 632 mmHg 96%
01:00 +18°C° 0 mm 1 mps 632 mmHg 95%
02:00 +16°C° 0 mm 1 mps 632 mmHg 95%
03:00 +16°C° 0 mm 1 mps 632 mmHg 95%
04:00 +16°C° 0 mm 1 mps 632 mmHg 95%
05:00 +16°C° 0 mm 1 mps 632 mmHg 95%
06:00 +18°C° 0 mm 1 mps 633 mmHg 94%
07:00 +19°C° 0 mm 1 mps 634 mmHg 93%
08:00 +21°C° 0.1 mm 1 mps 634 mmHg 84%
09:00 +23°C° 0.1 mm 2 mps 634 mmHg 74%
10:00 +25°C° 0.1 mm 2 mps 635 mmHg 64%
11:00 +24°C° 0.5 mm 2 mps 634 mmHg 67%
12:00 +24°C° 0.5 mm 2 mps 634 mmHg 69%
13:00 +24°C° 0.5 mm 2 mps 634 mmHg 71%
14:00 +24°C° 0.4 mm 2 mps 633 mmHg 75%
15:00 +23°C° 0.4 mm 2 mps 633 mmHg 80%
16:00 +21°C° 0.4 mm 2 mps 632 mmHg 84%
17:00 +21°C° 0.2 mm 1 mps 633 mmHg 89%
18:00 +20°C° 0.2 mm 1 mps 633 mmHg 93%
19:00 +19°C° 0.2 mm 1 mps 633 mmHg 98%
20:00 +19°C° 0 mm 1 mps 634 mmHg 98%
21:00 +18°C° 0 mm 1 mps 634 mmHg 98%
22:00 +18°C° 0 mm 1 mps 634 mmHg 98%
23:00 +18°C° 0 mm 1 mps 634 mmHg 98%

31 July, Saturday

Time Temperature Precipitation Wind Pressure Humidity
00:00 +18°C° 0 mm 1 mps 633 mmHg 97%
01:00 +18°C° 0 mm 1 mps 633 mmHg 97%
02:00 +18°C° 0 mm 1 mps 633 mmHg 96%
03:00 +16°C° 0 mm 1 mps 633 mmHg 96%
04:00 +16°C° 0 mm 1 mps 633 mmHg 96%
05:00 +18°C° 0 mm 1 mps 633 mmHg 95%
06:00 +18°C° 0 mm 1 mps 633 mmHg 93%
07:00 +19°C° 0 mm 1 mps 634 mmHg 92%
08:00 +21°C° 0.1 mm 1 mps 634 mmHg 84%
09:00 +22°C° 0.1 mm 1 mps 635 mmHg 76%
10:00 +24°C° 0.1 mm 2 mps 635 mmHg 68%
11:00 +24°C° 0.4 mm 2 mps 634 mmHg 71%
12:00 +24°C° 0.4 mm 2 mps 634 mmHg 74%
13:00 +24°C° 0.4 mm 2 mps 634 mmHg 77%
14:00 +23°C° 0.5 mm 2 mps 633 mmHg 80%
15:00 +23°C° 0.5 mm 2 mps 633 mmHg 83%
16:00 +22°C° 0.5 mm 1 mps 633 mmHg 87%
17:00 +21°C° 0.2 mm 1 mps 633 mmHg 90%
18:00 +20°C° 0.2 mm 1 mps 633 mmHg 94%
19:00 +19°C° 0.2 mm 1 mps 633 mmHg 97%
20:00 +19°C° 0 mm 1 mps 634 mmHg 97%
21:00 +18°C° 0 mm 1 mps 634 mmHg 97%
22:00 +18°C° 0 mm 1 mps 634 mmHg 97%
23:00 +18°C° 0.1 mm 1 mps 634 mmHg 96%

1 August, Sunday

Time Temperature Precipitation Wind Pressure Humidity
00:00 +18°C° 0.1 mm 1 mps 633 mmHg 96%
01:00 +18°C° 0.1 mm 1 mps 633 mmHg 96%
02:00 +18°C° 0.1 mm 1 mps 633 mmHg 96%
03:00 +18°C° 0.1 mm 1 mps 633 mmHg 96%
04:00 +18°C° 0.1 mm 1 mps 633 mmHg 96%
05:00 +18°C° 0.1 mm 1 mps 633 mmHg 96%
06:00 +19°C° 0.1 mm 1 mps 634 mmHg 95%
07:00 +19°C° 0.1 mm 1 mps 634 mmHg 95%
08:00 +20°C° 0.1 mm 1 mps 634 mmHg 91%
09:00 +20°C° 0.1 mm 2 mps 635 mmHg 87%
10:00 +21°C° 0.1 mm 2 mps 635 mmHg 83%
11:00 +23°C° 0.2 mm 2 mps 635 mmHg 79%
12:00 +24°C° 0.2 mm 2 mps 634 mmHg 75%
13:00 +24°C° 0.2 mm 2 mps 634 mmHg 71%
14:00 +24°C° 0.2 mm 2 mps 634 mmHg 74%
15:00 +23°C° 0.2 mm 2 mps 633 mmHg 77%
16:00 +23°C° 0.2 mm 2 mps 633 mmHg 80%
17:00 +21°C° 0.1 mm 1 mps 633 mmHg 86%
18:00 +20°C° 0.1 mm 1 mps 633 mmHg 92%
19:00 +19°C° 0.1 mm 1 mps 634 mmHg 97%
20:00 +19°C° 0.2 mm 1 mps 634 mmHg 97%
21:00 +19°C° 0.2 mm 1 mps 634 mmHg 98%
22:00 +19°C° 0.2 mm 1 mps 634 mmHg 98%
23:00 +19°C° 0.3 mm 1 mps 634 mmHg 98%

2 August, Monday

Time Temperature Precipitation Wind Pressure Humidity
00:00 +19°C° 0.3 mm 1 mps 634 mmHg 98%
01:00 +19°C° 0.3 mm 1 mps 633 mmHg 97%
02:00 +19°C° 0.1 mm 1 mps 633 mmHg 98%
03:00 +19°C° 0.1 mm 1 mps 633 mmHg 98%
04:00 +18°C° 0.1 mm 1 mps 633 mmHg 98%
05:00 +19°C° 0.1 mm 1 mps 633 mmHg 97%
06:00 +19°C° 0.1 mm 1 mps 634 mmHg 96%
07:00 +19°C° 0.1 mm 1 mps 634 mmHg 96%
08:00 +20°C° 0.4 mm 1 mps 634 mmHg 93%
09:00 +20°C° 0.4 mm 1 mps 634 mmHg 91%
10:00 +21°C° 0.4 mm 1 mps 635 mmHg 89%
11:00 +20°C° 1.1 mm 1 mps 634 mmHg 91%
12:00 +20°C° 1.1 mm 1 mps 634 mmHg 93%
13:00 +20°C° 1.1 mm 1 mps 634 mmHg 96%
14:00 +19°C° 0.6 mm 1 mps 633 mmHg 95%
15:00 +19°C° 0.6 mm 1 mps 633 mmHg 95%
16:00 +19°C° 0.6 mm 1 mps 633 mmHg 94%
17:00 +19°C° 0.1 mm 1 mps 633 mmHg 95%
18:00 +19°C° 0.1 mm 1 mps 633 mmHg 96%
19:00 +18°C° 0.1 mm 1 mps 633 mmHg 97%
20:00 +18°C° 0 mm 1 mps 634 mmHg 97%
21:00 +18°C° 0 mm 1 mps 634 mmHg 97%
22:00 +18°C° 0 mm 1 mps 634 mmHg 96%
23:00 +18°C° 0 mm 1 mps 634 mmHg 96%
Show more